Weather History for Fort Smith, AR

Change the Weather History Date:

Tuesday, November 9, 2010

  Actual Average Record
Temperature  
Mean Temperature 60 °F 54 °F  
Max Temperature 76 °F 66 °F 86 °F (2006)
Min Temperature 43 °F 43 °F 21 °F (1991)
Degree Days  
Heating Degree Days 5 11  
Month to date heating degree days 78 87  
Since 1 July heating degree days 156 241  
Growing Degree Days 10 (Base 50)    
Moisture  
Dew Point 46 °F    
Average Humidity 63    
Maximum Humidity 89    
Minimum Humidity 36    
Precipitation  
Precipitation 0.00 in 0.15 in 4.19 in (1946)
Month to date precipitation T 1.34  
Year to date precipitation 30.66 39.07  
Sea Level Pressure  
Sea Level Pressure 29.93 in    
Wind  
Wind Speed 4 mph (East)    
Max Wind Speed 14 mph    
Max Gust Speed 20 mph    
Visibility 10 miles    
Events      
T = Trace of Precipitation, MM = Missing Value Source: NWS Daily Summary

Daily Weather History Graph

Daily Weather History Graph

Search for Another Location

Airport:

Trip Planner

Search our weather history database for the weather conditions in past years. The results will help you decide how hot, cold, wet, or windy it might be!

Date:

Astronomy

Nov. 09, 2010 Rise Set
Actual Time 6:46 AM CST 5:15 PM CST
Civil Twilight 6:19 AM CST 5:42 PM CST
Nautical Twilight 5:49 AM CST 6:12 PM CST
Astronomical Twilight 5:19 AM CST 6:42 PM CST
Moon 10:21 AM CST (11/9) 8:19 PM CST (11/9)
Length of Visible Light 11h 22m
Length of Day
10h 28m
Waxing Crescent, 15% of the Moon is Illuminated
Nov 9
Waxing Crescent
Nov 13
First Quarter
Nov 21
Full
Nov 28
Last Quarter
Dec 5
New

Hourly Weather History & Observations

Time (CST) Temp. Windchill Dew Point Humidity Pressure Visibility Wind Dir Wind Speed Gust Speed Precip Events Conditions
12:53 AM 51.1 °F - 41.0 °F 68% 29.96 in 10.0 mi Calm Calm - N/A   Clear
1:53 AM 48.0 °F - 39.9 °F 74% 29.95 in 10.0 mi Calm Calm - N/A   Clear
2:53 AM 46.0 °F 44.8 °F 39.9 °F 79% 29.95 in 10.0 mi NE 3.5 mph - N/A   Clear
3:53 AM 46.0 °F - 39.9 °F 79% 29.95 in 10.0 mi Calm Calm - N/A   Clear
4:53 AM 45.0 °F 43.5 °F 41.0 °F 86% 29.96 in 10.0 mi NE 3.5 mph - N/A   Clear
5:53 AM 45.0 °F 43.5 °F 39.9 °F 82% 29.96 in 10.0 mi ENE 3.5 mph - N/A   Clear
6:53 AM 45.0 °F - 39.9 °F 82% 29.97 in 10.0 mi Calm Calm - N/A   Clear
7:53 AM 48.0 °F - 42.1 °F 80% 29.99 in 10.0 mi East 3.5 mph - N/A   Clear
8:53 AM 55.4 °F - 46.4 °F 72% 30.00 in 10.0 mi ENE 3.5 mph - N/A   Clear
9:53 AM 64.0 °F - 48.9 °F 58% 29.99 in 10.0 mi NE 4.6 mph - N/A   Clear
10:53 AM 68.0 °F - 52.0 °F 56% 29.98 in 10.0 mi Calm Calm - N/A   Clear
11:53 AM 71.1 °F - 51.1 °F 49% 29.95 in 10.0 mi Variable 4.6 mph - N/A   Clear
12:53 PM 73.9 °F - 46.0 °F 37% 29.91 in 10.0 mi SSW 13.8 mph - N/A   Clear
1:53 PM 75.0 °F - 46.0 °F 36% 29.90 in 10.0 mi South 10.4 mph - N/A   Clear
2:53 PM 73.9 °F - 48.0 °F 40% 29.88 in 10.0 mi SE 11.5 mph 18.4 mph N/A   Clear
3:53 PM 73.9 °F - 46.0 °F 37% 29.86 in 10.0 mi SSE 9.2 mph - N/A   Clear
4:53 PM 71.1 °F - 46.9 °F 42% 29.87 in 10.0 mi SSE 5.8 mph - N/A   Clear
5:53 PM 66.9 °F - 46.9 °F 49% 29.88 in 10.0 mi South 4.6 mph - N/A   Clear
6:53 PM 64.0 °F - 46.9 °F 54% 29.89 in 10.0 mi Calm Calm - N/A   Clear
7:53 PM 62.1 °F - 48.0 °F 60% 29.89 in 10.0 mi ENE 4.6 mph - N/A   Clear
8:53 PM 61.0 °F - 48.0 °F 62% 29.90 in 10.0 mi East 6.9 mph - N/A   Clear
9:53 PM 59.0 °F - 48.9 °F 69% 29.91 in 10.0 mi ENE 6.9 mph - N/A   Clear
10:53 PM 61.0 °F - 50.0 °F 67% 29.91 in 10.0 mi Calm Calm - N/A   Clear
11:53 PM 57.9 °F - 50.0 °F 75% 29.92 in 10.0 mi ENE 4.6 mph - N/A   Clear